Location: Zagreb
(45.8000°N, 16.0000°E)
Time: 18:15:50
(UTC+02:00)

Tiros 1 despin weight - Pass Details

Date: 17 August 2022
Orbit: 591 x 638 km, 48.2° (Epoch: 06 October)

Event Time Altitude Azimuth Distance (km) Brightness Sun altitude
Rises 09:31:45 0° 190° (S) 2,882 ? 35.6°
Reaches altitude 10° 09:35:11 10° 163° (SSE) 1,969 ? 36.2°
Maximum altitude 09:37:18 13° 135° (SE) 1,760 ? 36.5°
Drops below altitude 10° 09:39:25 10° 106° (ESE) 1,959 ? 36.9°
Sets 09:42:49 0° 80° (E) 2,855 ? 37.4°
